[TLELIST] Archives

 

[TLELIST] Current TLEs

August 5th 2024 PDT

HST 1 20580U 90037B 24217.83498059 .00014015 00000-0 65251-3 0 9999 2 20580 28.4695 19.0330 0001991 195.3674 164.6859 15.18427102684437 ISS (ZARYA) 1 25544U 98067A 24218.40833036 .00017319 00000-0 31445-3 0 9995 2 25544 51.6407 71.4795 0006064 163.3211 256.3606 15.49651608466189 CXO 1 25867U 99040B 24220.75370900 .00000655 00000-0 00000+0 0 9996 2 25867 42.2716 149.3233 8839176 299.5289 0.5440 0.37809098 25917 ...Continue Reading

[TLELIST] Current TLEs

August 4th 2024 PDT

HST 1 20580U 90037B 24217.17771280 .00009129 00000-0 42228-3 0 9995 2 20580 28.4695 23.4409 0002024 187.5392 172.5171 15.18406816684592 ISS (ZARYA) 1 25544U 98067A 24217.25647171 .00017268 00000-0 31399-3 0 9991 2 25544 51.6404 77.1858 0006206 160.1273 309.4674 15.49610582466002 CXO 1 25867U 99040B 24218.10874336 .00000614 00000-0 00000-0 0 9990 2 25867 42.2159 149.5335 8843784 299.3853 0.4937 0.37805422 14744 ...Continue Reading

[TLELIST] Current TLEs

August 4th 2024 PDT

HST 1 20580U 90037B 24217.17771280 .00009129 00000-0 42228-3 0 9995 2 20580 28.4695 23.4409 0002024 187.5392 172.5171 15.18406816684592 ISS (ZARYA) 1 25544U 98067A 24217.25647171 .00017268 00000-0 31399-3 0 9991 2 25544 51.6404 77.1858 0006206 160.1273 309.4674 15.49610582466002 CXO 1 25867U 99040B 24218.10874336 .00000614 00000-0 00000-0 0 9990 2 25867 42.2159 149.5335 8843784 299.3853 0.4937 0.37805422 14744 ...Continue Reading

[TLELIST] Current TLEs

August 3rd 2024 PDT

HST 1 20580U 90037B 24215.86316008 .00008504 00000-0 39302-3 0 9997 2 20580 28.4694 32.2564 0002154 172.5229 187.5396 15.18383667684131 ISS (ZARYA) 1 25544U 98067A 24216.16658206 .00019036 00000-0 34565-3 0 9994 2 25544 51.6407 82.5832 0006085 155.5388 350.0657 15.49577206465835 CXO 1 25867U 99040B 24218.10874336 .00000614 00000-0 00000-0 0 9990 2 25867 42.2159 149.5335 8843784 299.3853 0.4937 0.37805422 14744 ...Continue Reading

[TLELIST] Current TLEs

August 2nd 2024 PDT

HST 1 20580U 90037B 24214.87723244 .00008562 00000-0 39593-3 0 9997 2 20580 28.4693 38.8677 0002235 163.1391 196.9276 15.18367408683981 ISS (ZARYA) 1 25544U 98067A 24215.10864904 .00018133 00000-0 33014-3 0 9996 2 25544 51.6392 87.8212 0006118 152.4097 207.7217 15.49535697465678 CXO 1 25867U 99040B 24215.46343755 .00000554 00000-0 00000-0 0 9995 2 25867 42.1584 149.7525 8847160 299.2273 0.4224 0.37803139 14736 ...Continue Reading

[TLELIST] Current TLEs

August 1st 2024 PDT

HST 1 20580U 90037B 24213.89129453 .00009088 00000-0 42102-3 0 9994 2 20580 28.4692 45.4796 0002243 152.6514 207.4197 15.18352376683837 ISS (ZARYA) 1 25544U 98067A 24214.16593837 .00033120 00000-0 59556-3 0 9997 2 25544 51.6408 92.4877 0006370 154.8199 343.1632 15.49517145465522 CXO 1 25867U 99040B 24215.46343755 .00000554 00000-0 00000-0 0 9995 2 25867 42.1584 149.7525 8847160 299.2273 0.4224 0.37803139 14736 ...Continue Reading

[TLELIST] Current TLEs

July 31st 2024 PDT

HST 1 20580U 90037B 24212.90534594 .00008536 00000-0 39508-3 0 9994 2 20580 28.4692 52.0922 0002339 141.8945 218.1814 15.18337811683681 ISS (ZARYA) 1 25544U 98067A 24213.00349572 .00024406 00000-0 42565-3 0 9993 2 25544 51.6404 98.2394 0010069 125.2991 2.5886 15.50523307465344 CXO 1 25867U 99040B 24215.46343755 .00000554 00000-0 00000-0 0 9995 2 25867 42.1584 149.7525 8847160 299.2273 0.4224 0.37803139 14736 ...Continue Reading

[TLELIST] Current TLEs

July 30th 2024 PDT

HST 1 20580U 90037B 24211.85365723 .00007357 00000-0 33939-3 0 9995 2 20580 28.4691 59.1451 0002385 131.1778 228.9021 15.18321845683782 ISS (ZARYA) 1 25544U 98067A 24212.23326880 .00022357 00000-0 39127-3 0 9997 2 25544 51.6406 102.0608 0009894 124.2141 21.5799 15.50483309465226 CXO 1 25867U 99040B 24212.81828720 .00000474 00000-0 00000-0 0 9992 2 25867 42.0995 149.9794 8850044 299.0599 0.4005 0.37805532 14731 ...Continue Reading

[TLELIST] Current TLEs

July 29th 2024 PDT

HST 1 20580U 90037B 24210.86768993 .00006653 00000-0 30618-3 0 9990 2 20580 28.4688 65.7568 0002445 122.0079 238.0751 15.18307870683379 ISS (ZARYA) 1 25544U 98067A 24211.20008757 .00019906 00000-0 34998-3 0 9990 2 25544 51.6409 107.1851 0009854 120.5430 14.5742 15.50433013465060 CXO 1 25867U 99040B 24212.81828720 .00000474 00000-0 00000-0 0 9992 2 25867 42.0995 149.9794 8850044 299.0599 0.4005 0.37805532 14731 ...Continue Reading

[TLELIST] Current TLEs

July 28th 2024 PDT

HST 1 20580U 90037B 24210.01317780 .00007163 00000-0 33044-3 0 9994 2 20580 28.4686 71.4870 0002502 113.4142 246.6714 15.18297447683503 ISS (ZARYA) 1 25544U 98067A 24210.35729375 .00020861 00000-0 36697-3 0 9991 2 25544 51.6403 111.3623 0010126 116.2913 351.6381 15.50380942464931 CXO 1 25867U 99040B 24212.81818747 .00000474 00000-0 00000+0 0 9999 2 25867 42.0996 149.9794 8850039 299.0598 0.3870 0.37805916 25888 ...Continue Reading
  • This mailing list is a public mailing list - anyone may join or leave, at any time.
  • This mailing list is announce-only.

International Space Station (ISS) / Hubble Space Telescope (HST) / Chandra X-Ray Observatory Orbital Data via EMAIL

Privacy Policy:

Private list